Location: Gwatt
(46.7204°N, 7.6223°E)
Time: 14:57:35
(UTC+00:00)

deb Explorer IX - Pass Details

Date: 26 January 2021
Orbit: 537 x 1102 km, 38.8° (Epoch: 01 March)

Event Time Altitude Azimuth Distance (km) Brightness Sun altitude
Rises 17:18:52 0° 243° (WSW) 3,768 ? -9.5°
Reaches altitude 10° 17:21:54 10° 236° (SW) 2,745 ? -10.0°
Maximum altitude 17:27:51 37° 172° (S) 1,371 ? -11.0°
Enters shadow 17:32:56 11° 107° (ESE) 2,349 ? -11.8°
Drops below altitude 10° 17:33:03 10° 107° (ESE) 2,390 - -11.9°
Sets 17:35:31 0° 99° (E) 3,228 - -12.3°
